Location: Gerlach
(40.6516°N, 119.3568°W)
Time: 17:04:06
(UTC-07:00)

ITAMSAT 1 - Pass Details

Date: 05 August 2024
Orbit: 782 x 795 km, 98.8° (Epoch: 14 September)

Event Time Altitude Azimuth Distance (km) Brightness Sun altitude
Exits shadow 22:42:47 10° 220° (SW) 2,379 10.0 -24.2°
Reaches altitude 10° 22:42:54 10° 221° (SW) 2,348 10.0 -24.2°
Maximum altitude 22:46:38 20° 267° (W) 1,767 9.8 -24.6°
Drops below altitude 10° 22:50:24 10° 313° (NW) 2,366 11.1 -25.0°
Sets 22:53:23 0° 331° (NNW) 3,302 12.2 -25.3°
